| time (UTC) | temp C | wind direction | speed KPH | gust KPH | rain 1hr cm | rain 24hr cm | rain mn cm | humidity % | barometer mb |
| 20260506132018 | 17 | 0 | 3.2 | 4.8 | 0.00 | 1.60 | 0.33 | 63 | 1005.4 |
| 20260506131022 | 17 | 0 | 1.6 | 4.8 | 0.00 | 1.60 | 0.33 | 63 | 1005.5 |
| 20260506125918 | 17 | 0 | 1.6 | 3.2 | 0.00 | 1.60 | 0.33 | 64 | 1005.6 |
| 20260506125030 | 16 | 0 | 3.2 | 6.4 | 0.00 | 1.60 | 0.33 | 63 | 1005.5 |
| 20260506123919 | 16 | 0 | 1.6 | 3.2 | 0.00 | 1.60 | 0.33 | 62 | 1005.4 |
| 20260506123002 | 17 | 0 | 3.2 | 3.2 | 0.00 | 1.60 | 0.33 | 60 | 1005.4 |
| 20260506122049 | 17 | 0 | 3.2 | 4.8 | 0.00 | 1.60 | 0.33 | 60 | 1005.4 |
| 20260506120943 | 16 | 0 | 3.2 | 8.0 | 0.00 | 1.60 | 0.33 | 64 | 1005.5 |
| 20260506115219 | 16 | 0 | 3.2 | 4.8 | 0.00 | 1.60 | 0.33 | 66 | 1005.4 |
| 20260506114144 | 17 | 0 | 1.6 | 4.8 | 0.00 | 1.60 | 0.33 | 64 | 1005.4 |
| 20260506113120 | 16 | 0 | 3.2 | 4.8 | 0.00 | 1.60 | 0.33 | 72 | 1005.5 |
| 20260506112143 | 15 | 0 | 3.2 | 4.8 | 0.00 | 1.60 | 0.33 | 76 | 1005.6 |
| 20260506111208 | 16 | 0 | 3.2 | 6.4 | 0.00 | 1.60 | 0.33 | 71 | 1005.6 |
| 20260506110230 | 16 | 0 | 1.6 | 3.2 | 0.00 | 1.60 | 0.33 | 80 | 1005.7 |
| 20260506105207 | 15 | 0 | 4.8 | 8.0 | 0.00 | 1.60 | 0.33 | 82 | 1005.8 |
| 20260506102007 | 14 | 45 | 3.2 | 6.4 | 0.00 | 1.60 | 0.33 | 85 | 1005.9 |
| 20260506100807 | 15 | 45 | 3.2 | 4.8 | 0.00 | 1.60 | 0.33 | 88 | 1006.0 |
| 20260506095003 | 14 | 0 | 3.2 | 8.0 | 0.00 | 1.60 | 0.33 | 88 | 1005.9 |
| 20260506093919 | 14 | 0.0 | 3.2 | 0.00 | 1.60 | 0.33 | 89 | 1005.9 | |
| 20260506092915 | 13 | 0.0 | 1.6 | 0.00 | 1.60 | 0.33 | 93 | 1005.8 | |
| 20260506091910 | 13 | 0.0 | 0.0 | 0.00 | 1.60 | 0.33 | 95 | 1005.8 | |
| 20260506090807 | 13 | 0 | 3.2 | 4.8 | 0.00 | 1.60 | 0.33 | 94 | 1005.7 |
| 20260506085851 | 13 | 45 | 3.2 | 8.0 | 0.00 | 1.60 | 0.33 | 92 | 1005.7 |
| 20260506083919 | 13 | 0.0 | 3.2 | 0.00 | 1.60 | 0.33 | 96 | 1005.5 | |
| 20260506081851 | 13 | 0 | 3.2 | 6.4 | 0.00 | 1.60 | 0.33 | 98 | 1005.5 |
| 20260506080914 | 13 | 0.0 | 3.2 | 0.00 | 1.60 | 0.33 | 100 | 1005.4 | |
| 20260506073227 | 13 | 0.0 | 0.0 | 0.00 | 1.60 | 0.33 | 1005.3 | ||
| 20260506071138 | 13 | 0.0 | 1.6 | 0.00 | 1.60 | 0.33 | 1005.4 | ||
| 20260506070250 | 13 | 0.0 | 0.0 | 0.00 | 1.60 | 0.33 | 1005.3 | ||
| 20260506062007 | 12 | 0.0 | 1.6 | 0.00 | 1.60 | 0.33 | 1005.3 | ||
| 20260506061031 | 12 | 0 | 1.6 | 3.2 | 0.00 | 1.60 | 0.33 | 1005.2 | |
| 20260506060718 | 12 | 0 | 1.6 | 3.2 | 0.00 | 1.60 | 0.33 | 1005.2 | |
| 20260506050943 | 12 | 0.0 | 0.0 | 0.03 | 1.60 | 0.33 | 1005.2 | ||
| 20260506044855 | 12 | 0.0 | 1.6 | 0.03 | 1.60 | 0.33 | 1005.2 | ||
| 20260506043850 | 12 | 0.0 | 1.6 | 0.03 | 1.60 | 0.33 | 1004.9 | ||
| 20260506042807 | 12 | 0.0 | 1.6 | 0.03 | 1.60 | 0.33 | 1005.1 | ||
| 20260506041831 | 12 | 0.0 | 3.2 | 0.05 | 1.60 | 0.33 | 1004.9 | ||
| 20260506035450 | 12 | 0.0 | 0.0 | 0.03 | 1.55 | 0.30 | 1004.9 | ||
| 20260506034427 | 12 | 0.0 | 0.0 | 0.05 | 1.55 | 0.30 | 1005.1 | ||
| 20260506033342 | 12 | 0.0 | 0.0 | 0.05 | 1.55 | 0.30 | 1005.1 | ||
| 20260506031342 | 13 | 0.0 | 0.0 | 0.13 | 1.52 | 0.28 | 1005.1 | ||
| 20260506030230 | 13 | 0.0 | 0.0 | 0.15 | 1.52 | 0.28 | 1005.2 | ||
| 20260506025206 | 13 | 0.0 | 0.0 | 0.18 | 1.52 | 0.28 | 1005.3 | ||
| 20260506024142 | 12 | 0.0 | 0.0 | 0.18 | 1.50 | 0.23 | 1005.4 | ||
| 20260506023030 | 12 | 0.0 | 0.0 | 0.18 | 1.50 | 0.23 | 1005.5 | ||
| 20260506022006 | 12 | 0.0 | 3.2 | 0.18 | 1.47 | 0.20 | 1005.7 | ||
| 20260506013206 | 13 | 0.0 | 0.0 | 0.03 | 1.32 | 0.05 | 1006.1 | ||
| 20260506012231 | 12 | 0.0 | 0.0 | 0.00 | 1.30 | 0.03 | 1006.1 | ||
| 20260506011208 | 13 | 0.0 | 0.0 | 0.00 | 1.30 | 0.03 | 99 | 1006.1 | |
| 20260506010142 | 13 | 0.0 | 1.6 | 0.00 | 1.30 | 0.03 | 1006.1 | ||
| 20260506004204 | 13 | 0.0 | 0.0 | 0.00 | 1.30 | 0.03 | 98 | 1006.2 | |
| 20260506002943 | 13 | 0.0 | 0.0 | 0.00 | 1.30 | 0.03 | 98 | 1006.3 | |
| 20260506001920 | 13 | 0.0 | 0.0 | 0.00 | 1.30 | 0.03 | 100 | 1006.4 | |
| 20260506000942 | 12 | 0.0 | 0.0 | 0.00 | 1.30 | 0.03 | 1006.5 | ||
| 20260505235920 | 13 | 0.0 | 0.0 | 0.00 | 1.30 | 0.03 | 99 | 1006.6 | |
| 20260505234948 | 13 | 0.0 | 0.0 | 0.00 | 1.30 | 0.03 | 99 | 1006.6 | |
| 20260505233742 | 13 | 0.0 | 0.0 | 0.00 | 1.30 | 0.03 | 100 | 1006.7 | |
| 20260505232718 | 13 | 0.0 | 0.0 | 0.00 | 1.30 | 0.03 | 99 | 1006.8 | |
| 20260505231742 | 13 | 0.0 | 0.0 | 0.03 | 1.30 | 0.03 | 1006.8 | ||
| 20260505225851 | 13 | 0.0 | 0.0 | 0.03 | 1.30 | 0.03 | 1006.9 | ||
| 20260505223831 | 13 | 0.0 | 0.0 | 0.05 | 1.30 | 0.03 | 97 | 1007.0 | |
| 20260505222806 | 13 | 0.0 | 0.0 | 0.05 | 1.30 | 0.03 | 99 | 1007.0 | |
| 20260505220943 | 13 | 0.0 | 0.0 | 0.10 | 1.27 | 0.00 | 96 | 1007.2 | |
| 20260505214222 | 13 | 0.0 | 0.0 | 0.13 | 1.22 | 1.22 | 96 | 1007.3 | |
| 20260505213119 | 13 | 0.0 | 0.0 | 0.15 | 1.22 | 1.22 | 98 | 1007.3 | |
| 20260505212230 | 13 | 0.0 | 0.0 | 0.15 | 1.19 | 1.19 | 97 | 1007.4 | |
| 20260505211030 | 13 | 0.0 | 0.0 | 0.15 | 1.17 | 1.17 | 98 | 1007.4 | |
| 20260505210223 | 13 | 0.0 | 0.0 | 0.15 | 1.14 | 1.14 | 98 | 1007.5 | |
| 20260505204006 | 13 | 0.0 | 0.0 | 0.18 | 1.12 | 1.12 | 97 | 1007.5 | |
| 20260505203119 | 13 | 0.0 | 0.0 | 0.20 | 1.09 | 1.09 | 97 | 1007.7 | |
| 20260505202027 | 13 | 0.0 | 0.0 | 0.20 | 1.04 | 1.04 | 97 | 1007.7 | |
| 20260505201050 | 13 | 0.0 | 0.0 | 0.23 | 1.02 | 1.02 | 94 | 1007.5 | |
| 20260505195207 | 13 | 0.0 | 0.0 | 0.38 | 0.97 | 0.97 | 97 | 1007.4 | |
| 20260505194142 | 13 | 0.0 | 0.0 | 0.46 | 0.94 | 0.94 | 94 | 1007.4 | |
| 20260505192230 | 14 | 0.0 | 0.0 | 0.71 | 0.84 | 0.84 | 94 | 1007.4 | |
| 20260505191118 | 13 | 0.0 | 0.0 | 0.69 | 0.79 | 0.79 | 97 | 1007.2 | |
| 20260505190318 | 13 | 0.0 | 0.0 | 0.69 | 0.71 | 0.71 | 98 | 1007.1 | |
| 20260505185119 | 13 | 0.0 | 1.6 | 0.53 | 0.56 | 0.56 | 99 | 1007.0 | |
| 20260505184143 | 13 | 0.0 | 1.6 | 0.48 | 0.48 | 0.48 | 98 | 1007.1 | |
| 20260505182942 | 14 | 0.0 | 3.2 | 0.20 | 0.20 | 0.20 | 97 | 1006.9 | |
| 20260505181939 | 14 | 0.0 | 3.2 | 0.10 | 0.10 | 0.10 | 94 | 1006.9 | |
| 20260505181002 | 14 | 0 | 1.6 | 4.8 | 0.05 | 0.05 | 0.05 | 94 | 1006.7 |
| 20260505175919 | 15 | 135 | 1.6 | 3.2 | 0.03 | 0.03 | 0.03 | 92 | 1006.8 |
| 20260505175043 | 15 | 0 | 0.0 | 3.2 | 0.00 | 0.00 | 0.00 | 89 | 1006.8 |
| 20260505174007 | 16 | 0.0 | 0.0 | 0.00 | 0.00 | 0.00 | 81 | 1006.9 | |
| 20260505172942 | 16 | 0.0 | 0.0 | 0.00 | 0.00 | 0.00 | 78 | 1006.9 | |
| 20260505171938 | 16 | 0.0 | 1.6 | 0.00 | 0.00 | 0.00 | 79 | 1006.8 | |
| 20260505170943 | 16 | 0.0 | 1.6 | 0.00 | 0.00 | 0.00 | 78 | 1006.5 | |
| 20260505165918 | 16 | 0.0 | 0.0 | 0.00 | 0.00 | 0.00 | 76 | 1006.6 | |
| 20260505165031 | 16 | 0 | 1.6 | 3.2 | 0.00 | 0.00 | 0.00 | 75 | 1006.5 |
| 20260505163918 | 16 | 0.0 | 3.2 | 0.00 | 0.00 | 0.00 | 75 | 1006.6 | |
| 20260505162143 | 17 | 0.0 | 0.0 | 0.00 | 0.00 | 0.00 | 73 | 1006.7 | |
| 20260505161051 | 17 | 0.0 | 1.6 | 0.00 | 0.00 | 0.00 | 73 | 1006.7 | |
| 20260505153002 | 17 | 0.0 | 1.6 | 0.00 | 0.00 | 0.00 | 71 | 1006.8 | |
| 20260505152054 | 18 | 0 | 1.6 | 3.2 | 0.00 | 0.00 | 0.00 | 69 | 1006.8 |
| 20260505151022 | 18 | 0 | 3.2 | 6.4 | 0.00 | 0.00 | 0.00 | 67 | 1006.8 |